International Skating Union - Official Site

Essent ISU World Cup Astana
December 1-2, 2012

Draw | Lap Times | Index | World Cup

Referee: Ekaterina  PILSHCHIKOVA  (RUS)
Starter: Ole Herman  SÖRLI  (NOR)
StartTime: EndTime: Air Temp: Ice Temp: Humidity:
15:53 16:45 16.6℃ -6.8℃ 29.6%
Result 5000m Ladies Division A
Rankings as of Dec 2 2012 6:52PM
Rank: No.: Name: Nation: Time: Behind: Points:
1 9 Martina  Sábliková CZE CZE 7:00.75200m - 20.88 - (20.8)
600m - 53.84 - (32.9)
1000m - 1:27.35 - (33.5)
1400m - 2:00.77 - (33.4)
1800m - 2:34.08 - (33.3)
2200m - 3:07.07 - (32.9)
2600m - 3:40.31 - (33.2)
3000m - 4:13.32 - (33.0)
3400m - 4:46.80 - (33.4)
3800m - 5:20.33 - (33.5)
4200m - 5:53.73 - (33.4)
4600m - 6:27.15 - (33.4)
5000m - 7:00.75 - (33.6)
100
2 13 Claudia  Pechstein GER GER 7:01.05200m - 20.49 - (20.4)
600m - 52.73 - (32.2)
1000m - 1:25.30 - (32.5)
1400m - 1:57.86 - (32.5)
1800m - 2:30.33 - (32.4)
2200m - 3:02.96 - (32.6)
2600m - 3:35.89 - (32.9)
3000m - 4:09.36 - (33.4)
3400m - 4:43.40 - (34.0)
3800m - 5:17.69 - (34.2)
4200m - 5:52.10 - (34.4)
4600m - 6:26.65 - (34.5)
5000m - 7:01.05 - (34.4)
0.30 80
3 46 Olga  Graf RUS RUS 7:01.38200m - 21.40 - (21.4)
600m - 54.19 - (32.7)
1000m - 1:27.39 - (33.2)
1400m - 2:00.62 - (33.2)
1800m - 2:33.90 - (33.2)
2200m - 3:07.28 - (33.3)
2600m - 3:40.75 - (33.4)
3000m - 4:14.37 - (33.6)
3400m - 4:47.84 - (33.4)
3800m - 5:20.97 - (33.1)
4200m - 5:54.46 - (33.4)
4600m - 6:27.87 - (33.4)
5000m - 7:01.38 - (33.5)
0.63 70
4 10 Stephanie  Beckert GER GER 7:02.52200m - 21.91 - (21.9)
600m - 55.36 - (33.4)
1000m - 1:28.02 - (32.6)
1400m - 2:01.02 - (33.0)
1800m - 2:34.04 - (33.0)
2200m - 3:07.12 - (33.0)
2600m - 3:40.50 - (33.3)
3000m - 4:14.03 - (33.5)
3400m - 4:47.77 - (33.7)
3800m - 5:21.54 - (33.7)
4200m - 5:55.58 - (34.0)
4600m - 6:29.42 - (33.8)
5000m - 7:02.52 - (33.1)
1.77 60
5 34 Diane  Valkenburg NED NED 7:03.51200m - 20.79 - (20.7)
600m - 54.28 - (33.4)
1000m - 1:28.18 - (33.9)
1400m - 2:01.91 - (33.7)
1800m - 2:34.87 - (32.9)
2200m - 3:08.07 - (33.2)
2600m - 3:40.80 - (32.7)
3000m - 4:14.26 - (33.4)
3400m - 4:47.71 - (33.4)
3800m - 5:21.35 - (33.6)
4200m - 5:54.92 - (33.5)
4600m - 6:28.84 - (33.9)
5000m - 7:03.51 - (34.6)
2.76 50
6 31 Marije  Joling NED NED 7:08.56200m - 20.52 - (20.5)
600m - 53.29 - (32.7)
1000m - 1:26.82 - (33.5)
1400m - 2:00.50 - (33.6)
1800m - 2:34.24 - (33.7)
2200m - 3:08.02 - (33.7)
2600m - 3:41.94 - (33.9)
3000m - 4:16.18 - (34.2)
3400m - 4:50.43 - (34.2)
3800m - 5:25.05 - (34.6)
4200m - 5:59.57 - (34.5)
4600m - 6:34.10 - (34.5)
5000m - 7:08.56 - (34.4)
7.81 45
7 25 Bo-Reum  Kim KOR KOR 7:11.19200m - 21.77 - (21.7)
600m - 55.61 - (33.8)
1000m - 1:29.49 - (33.8)
1400m - 2:03.76 - (34.2)
1800m - 2:37.64 - (33.8)
2200m - 3:11.86 - (34.2)
2600m - 3:45.65 - (33.7)
3000m - 4:19.83 - (34.1)
3400m - 4:53.72 - (33.8)
3800m - 5:27.66 - (33.9)
4200m - 6:02.35 - (34.6)
4600m - 6:37.66 - (35.3)
5000m - 7:11.19 - (33.5)
10.44 40
8 45 Yevgeniya  Dmitriyeva RUS RUS 7:13.46200m - 21.28 - (21.2)
600m - 54.90 - (33.6)
1000m - 1:28.63 - (33.7)
1400m - 2:02.63 - (34.0)
1800m - 2:36.53 - (33.9)
2200m - 3:10.60 - (34.0)
2600m - 3:44.70 - (34.1)
3000m - 4:19.20 - (34.5)
3400m - 4:53.96 - (34.7)
3800m - 5:29.04 - (35.0)
4200m - 6:04.05 - (35.0)
4600m - 6:38.52 - (34.4)
5000m - 7:13.46 - (34.9)
12.71 35
9 3 Ivanie  Blondin CAN CAN 7:15.77200m - 21.25 - (21.2)
600m - 54.53 - (33.2)
1000m - 1:28.79 - (34.2)
1400m - 2:02.78 - (33.9)
1800m - 2:37.33 - (34.5)
2200m - 3:11.78 - (34.4)
2600m - 3:46.52 - (34.7)
3000m - 4:21.05 - (34.5)
3400m - 4:56.01 - (34.9)
3800m - 5:31.01 - (35.0)
4200m - 6:05.47 - (34.4)
4600m - 6:40.23 - (34.7)
5000m - 7:15.77 - (35.5)
15.02 30
10 15 Masako  Hozumi JPN JPN 7:16.18200m - 20.98 - (20.9)
600m - 53.21 - (32.2)
1000m - 1:26.31 - (33.1)
1400m - 2:00.03 - (33.7)
1800m - 2:34.10 - (34.0)
2200m - 3:08.51 - (34.4)
2600m - 3:43.14 - (34.6)
3000m - 4:17.74 - (34.6)
3400m - 4:52.41 - (34.6)
3800m - 5:28.27 - (35.8)
4200m - 6:03.89 - (35.6)
4600m - 6:39.82 - (35.9)
5000m - 7:16.18 - (36.3)
15.43 25
11 39 Ida  Njåtun NOR NOR 7:20.77200m - 21.14 - (21.1)
600m - 54.96 - (33.8)
1000m - 1:28.76 - (33.8)
1400m - 2:03.21 - (34.4)
1800m - 2:37.63 - (34.4)
2200m - 3:12.30 - (34.6)
2600m - 3:46.81 - (34.5)
3000m - 4:21.74 - (34.9)
3400m - 4:56.72 - (34.9)
3800m - 5:32.30 - (35.5)
4200m - 6:08.07 - (35.7)
4600m - 6:44.12 - (36.0)
5000m - 7:20.77 - (36.6)
20.02 21
12 40 Katarzyna  Bachleda-Curus POL POL 7:29.76200m - 21.63 - (21.6)
600m - 54.95 - (33.3)
1000m - 1:28.80 - (33.8)
1400m - 2:02.84 - (34.0)
1800m - 2:37.05 - (34.2)
2200m - 3:11.20 - (34.1)
2600m - 3:46.12 - (34.9)
3000m - 4:21.75 - (35.6)
3400m - 4:58.07 - (36.3)
3800m - 5:35.76 - (37.6)
4200m - 6:14.06 - (38.3)
4600m - 6:52.00 - (37.9)
5000m - 7:29.76 - (37.7)
29.01 18